Regional Weather Roundup
Issued by NWS

Home | Current Version | Previous Version | Graphics & Text | Print | Product List | Glossary On
Versions: 1 2 3 4 5 6 7 8 9 10 11 12 13 14 15 16 17 18 19 20 21 22 23 24 25 26 27 28 29 30 31 32 33 34 35 36 37 38 39 40 41 42 43 44 45 46 47 48 49 50
000
ASUS43 KIND 300609
RWRIN

WEATHER ROUNDUP FOR INDIANA
NATIONAL WEATHER SERVICE INDIANAPOLIS IN
100 AM EST FRI JAN 30 2015

NOTE: "FAIR" INDICATES FEW OR NO CLOUDS BELOW 12,000 FEET WITH NO
SIGNIFICANT WEATHER AND/OR OBSTRUCTIONS TO VISIBILITY.

* - STATION DOES NOT REPORT WEATHER SUCH AS PRECIPITATION OR FOG.

+ - STATION NOT QUALITY CONTROLLED BY THE NATIONAL WEATHER SERVICE.
    USE DATA WITH CAUTION...ESPECIALLY DEWPOINT AND RELATIVE
    HUMIDITY OBSERVATIONS.

INZ001>003-010>013-019-020-300700-
NORTHWEST INDIANA

CITY           SKY/WX    TMP DP  RH WIND       PRES   REMARKS
GARY /AIRPORT/ CLOUDY    32  22  66 N21G28    30.31R WCI  20
KNOX *+        CLOUDY    32  18  55 N23       30.24R WCI  19
LA PORTE +     FLURRIES  31  27  85 N22G29    30.25R WCI  18
6HR MIN TEMP:  31; 6HR MAX TEMP:  35;

MICHIGAN CITY+ FLURRIES  30  21  69 N17G28    30.27R WCI  18
MONTICELLO +   CLOUDY    32  25  73 NW12      30.24R WCI  23
6HR MIN TEMP:  32; 6HR MAX TEMP:  33;

RENSSELAER +   CLOUDY    34  28  80 W8        30.27R WCI  27
VALPARAISO     LGT SNOW  30  25  81 N13G21    30.26R WCI  20
6HR MIN TEMP:  30; 6HR MAX TEMP:  34; 6HR PCP: TRACE;


$$

LMZ046-743>745-300700-
SOUTHERN LAKE MICHIGAN

STATION/POSITION TIME  TEMP WIND        PRES
                       AIR  DIR/SP/G
                 (UTC) (F)  (DEG/KT/KT) (MB)
MICHIGAN CITY    0600   30  340/ 30/ 36   N/A

$$

INZ004-005-014>016-021>024-300700-
NORTH CENTRAL INDIANA

CITY           SKY/WX    TMP DP  RH WIND       PRES   REMARKS
GOSHEN         CLOUDY    29  23  78 N21G29    30.20R WCI  16
6HR MIN TEMP:  29; 6HR MAX TEMP:  34; 6HR PCP:  0.01;

LOGANSPORT +   CLOUDY    32  23  69 NW10      30.23R WCI  24
PERU/GRISSOM   CLOUDY    33  25  74 NW14      30.20R WCI  23
6HR MIN TEMP:  32; 6HR MAX TEMP:  33; 6HR PCP: TRACE;

ROCHESTER +    MOCLDY    34  28  80 N15G23    30.22R WCI  24
SOUTH BEND     CLOUDY    29  24  82 N20G25    30.24  WCI  16
6HR MIN TEMP:  29; 6HR MAX TEMP:  35; 6HR PCP: TRACE;

WARSAW +       CLOUDY    30  25  80 NW12G23   30.20R WCI  21

$$

INZ006>009-017-018-025>027-300700-
NORTHEAST INDIANA

CITY           SKY/WX    TMP DP  RH WIND       PRES   REMARKS
ANGOLA *+      MOCLDY    28  21  74 N16G25    30.15R WCI  17
AUBURN +       CLOUDY    32  23  69 NW14G26   30.16R WCI  22
FORT WAYNE     FLURRIES  32  26  78 NW14G23   30.17R WCI  22
6HR MIN TEMP:  31; 6HR MAX TEMP:  33; 6HR PCP:  0.02;

HUNTINGTON +   CLOUDY    32  24  73 NW9G17    30.17S WCI  24
6HR MIN TEMP:  32; 6HR MAX TEMP:  32;


$$

INZ028-029-035-036-043>045-051>053-300700-
WEST CENTRAL INDIANA

CITY           SKY/WX    TMP DP  RH WIND       PRES   REMARKS
CRAWFORDSVL +  CLOUDY    32  20  62 NW15G23   30.26S WCI  21
6HR MIN TEMP:  31; 6HR MAX TEMP:  32;

GREENCASTLE +  CLOUDY    34  23  64 NW8G16    30.27R WCI  27
LAFAYETTE      CLOUDY    33  24  69 NW9       30.27R WCI  25
6HR MIN TEMP:  33; 6HR MAX TEMP:  34;

TERRE HAUTE    CLOUDY    34  27  75 NW13G20   30.30R WCI  25
6HR MIN TEMP:  34; 6HR MAX TEMP:  35;


$$

INZ030>032-037>040-046>048-054>057-064-065-300700-
CENTRAL INDIANA

CITY           SKY/WX    TMP DP  RH WIND       PRES   REMARKS
CP ATTERBURY + CLOUDY    34  28  80 NW12G17   30.25S WCI  25
GREENWOOD *+   CLOUDY    34  23  64 NW12G17   30.24R WCI  25
INDIANAPOLIS   FLURRIES  31  25  78 NW14      30.24S WCI  21
6HR MIN TEMP:  30; 6HR MAX TEMP:  31; 6HR PCP: TRACE;

-EAGLE CREEK   CLOUDY    33  24  69 NW14G23   30.23S WCI  23
6HR MIN TEMP:  32; 6HR MAX TEMP:  33;

KOKOMO *+      CLOUDY    34  25  69 NW14G21   30.21S WCI  24
6HR MIN TEMP:  32; 6HR MAX TEMP:  34;

MARION +       CLOUDY    32  26  77 NW16      30.20R WCI  21
6HR MIN TEMP:  -2; 6HR MAX TEMP:  46;

MT COMFORT *+  CLOUDY    32  21  64 NW9       30.23R WCI  24
SHELBYVILLE    CLOUDY    35  26  69 NW13      30.22S WCI  26
6HR MIN TEMP:  34; 6HR MAX TEMP:  35;

ZIONSVILLE +   CLOUDY    33  25  71 NW14      30.23S WCI  23
6HR MIN TEMP:  32; 6HR MAX TEMP:  33;


$$

INZ033-034-041-042-049-050-058-059-300700-
EAST CENTRAL INDIANA

CITY           SKY/WX    TMP DP  RH WIND       PRES   REMARKS
MUNCIE         CLOUDY    33  27  78 W14       30.18S WCI  23
6HR MIN TEMP:  32; 6HR MAX TEMP:  33;


$$

INZ060-061-067>069-081>083-085>088-300700-
SOUTHWEST INDIANA

CITY           SKY/WX    TMP DP  RH WIND       PRES   REMARKS
EVANSVILLE     CLOUDY    37  29  72 NW10      30.36S
6HR MIN TEMP:  36; 6HR MAX TEMP:  40; 6HR PCP: TRACE;

HUNTINGBURG *+ CLOUDY    36  27  69 NW10G22   30.33S
6HR MIN TEMP:  36; 6HR MAX TEMP:  37;

WASHINGTON +   CLOUDY    35  28  77 NW12      30.32S WCI  26
6HR MIN TEMP:  35; 6HR MAX TEMP:  36;


$$

INZ062-063-066-070>080-084-089>092-300700-
SOUTH CENTRAL AND SOUTHEAST INDIANA

CITY           SKY/WX    TMP DP  RH WIND       PRES   REMARKS
BLOOMINGTON    CLOUDY    34  25  69 N8        30.27R WCI  27
6HR MIN TEMP:  33; 6HR MAX TEMP:  35; 6HR PCP: TRACE;

NORTH VERNON + CLOUDY    34  28  80 W12       30.25R WCI  25
SEYMOUR +      CLOUDY    36  27  69 NW8       30.27R

$$



USA.gov is the U.S. government's official web portal to all federal, state and local government web resources and services.